Temperature
2 2 2 2 2 2 2 1 1 0 1 2 2 2 2 2 2 2 3 3 3 3 3 4 4 4 4 4 4 5 5 5 5 5 5 5 5 5
2 2 2 2 2 2 1 1 1 1 0 1 1 2 2 2 2 2 2 3 3 3 3 3 3 3 3 4 4 4 4 4 4 4 4 5 5 5
1 1 1 2 1 1 1 1 0 0 0 0 1 1 1 1 2 2 2 2 3 3 3 3 3 3 3 3 3 4 4 4 4 4 4 4 4 4
1 1 1 1 1 1 1 0 0 0 0 0 0 1 1 1 1 2 2 2 2 2 2 3 3 2 3 3 3 3 3 3 3 3 3 4 4 4
1 1 1 0 0 0 0 -0 -0 -0 -0 -0 -0 0 0 1 1 1 1 1 2 2 2 2 2 2 2 2 2 3 3 3 3 3 3 3 3 3
1 0 0 0 0 -0 -0 -0 -0 -0 -0 -0 -0 -0 0 0 0 0 1 1 1 2 1 2 2 2 2 2 2 2 2 2 2 3 3 3 3 3
0 0 0 -0 -0 -1 -1 -1 -1 -1 -1 -1 -1 -1 -0 -0 -0 0 -0 0 1 1 1 1 1 1 1 1 2 2 2 2 2 2 2 2 2 2
-0 -0 -0 -0 -1 -1 -1 -1 -1 -1 -1 -1 -1 -1 -1 -1 -0 -0 -0 -0 -0 0 0 1 1 1 1 1 1 1 1 2 2 2 2 2 2 2
-0 -0 -1 -1 -1 -1 -1 -1 -1 -1 -1 -1 -1 -1 -1 -1 -1 -1 -1 -1 -1 -0 -0 -0 0 1 1 1 1 1 1 1 1 1 1 1 1 1
-1 -1 -1 -1 -1 -1 -1 -1 -1 -1 -1 -1 -1 -1 -1 -1 -1 -1 -1 -1 -1 -1 -1 -1 -0 -0 0 1 1 1 1 1 1 1 1 1 1 1
-1 -1 -1 -1 -1 -2 -2 -2 -2 -1 -2 -1 -1 -1 -2 -1 -2 -2 -2 -2 -2 -1 -1 -2 -1 -1 -1 -0 0 0 0 0 0 1 1 0 1 1
-2 -2 -2 -2 -2 -2 -2 -2 -2 -2 -2 -2 -2 -2 -2 -2 -2 -2 -2 -2 -2 -2 -2 -2 -2 -2 -2 -1 -0 -0 -0 0 0 0 0 0 0 0
-3 -2 -2 -2 -2 -3 -3 -3 -2 -2 -2 -2 -2 -2 -2 -2 -2 -2 -2 -2 -2 -2 -2 -2 -2 -2 -2 -2 -1 -1 -1 -0 -0 -0 -0 -0 -0 -0
-3 -3 -3 -3 -3 -3 -3 -3 -3 -3 -3 -3 -3 -3 -3 -2 -2 -2 -2 -2 -2 -2 -2 -2 -2 -2 -2 -3 -2 -1 -1 -1 -1 -1 -1 -0 -0 -0
-3 -3 -3 -3 -3 -3 -3 -3 -3 -3 -3 -3 -3 -3 -3 -3 -3 -2 -2 -2 -2 -2 -2 -2 -2 -2 -2 -3 -3 -2 -2 -2 -1 -1 -1 -1 -1 -1
-3 -3 -3 -3 -3 -3 -3 -4 -3 -3 -3 -3 -3 -3 -3 -3 -3 -3 -3 -3 -2 -2 -2 -2 -2 -3 -2 -2 -2 -2 -2 -3 -2 -2 -2 -1 -1 -1
-4 -4 -4 -4 -4 -4 -4 -4 -4 -4 -4 -4 -4 -4 -4 -3 -3 -3 -3 -3 -3 -3 -2 -2 -3 -3 -3 -3 -2 -2 -3 -3 -3 -2 -2 -2 -2 -2
-4 -4 -4 -4 -4 -4 -4 -4 -4 -4 -4 -4 -4 -4 -4 -4 -4 -4 -4 -3 -3 -3 -3 -3 -3 -3 -3 -3 -3 -3 -3 -3 -3 -3 -3 -3 -2 -2
-4 -4 -4 -5 -5 -4 -4 -4 -4 -4 -4 -4 -4 -4 -4 -4 -4 -4 -4 -4 -4 -4 -3 -3 -3 -3 -3 -4 -3 -3 -3 -3 -3 -3 -3 -3 -3 -3
-4 -5 -5 -5 -5 -5 -5 -5 -5 -4 -4 -4 -4 -5 -5 -5 -5 -5 -4 -4 -4 -4 -4 -4 -4 -4 -4 -4 -4 -3 -3 -3 -3 -3 -3 -3 -3 -3
-5 -5 -5 -5 -5 -5 -5 -5 -5 -5 -5 -5 -5 -5 -5 -5 -5 -5 -5 -5 -5 -5 -4 -4 -4 -4 -4 -4 -4 -4 -3 -4 -4 -4 -3 -4 -3 -3
-5 -5 -5 -5 -5 -5 -5 -5 -5 -5 -5 -5 -5 -5 -5 -5 -5 -5 -5 -5 -5 -5 -5 -4 -4 -4 -4 -4 -4 -4 -4 -4 -3 -4 -4 -4 -4 -4
-5 -5 -5 -5 -5 -5 -5 -5 -5 -5 -5 -5 -5 -5 -5 -5 -5 -5 -5 -5 -5 -5 -5 -5 -4 -4 -4 -4 -4 -4 -4 -4 -4 -4 -3 -3 -3 -3
Wind_Speed
3 3 3 3 2 2 2 3 3 4 5 3 2 3 4 5 7 7 6 9 10 9 9 8 9 9 9 10 10 8 8 7 7 7 8 9 9 9
3 3 3 3 2 2 2 3 3 4 5 4 4 4 4 5 8 6 7 9 9 8 8 8 8 8 9 10 9 7 6 5 6 7 8 8 8 8
3 3 3 3 3 2 3 3 3 3 6 5 4 3 4 5 5 5 6 6 6 8 8 8 8 8 9 8 8 7 5 6 6 7 8 9 9 9
4 4 4 3 4 3 3 4 4 4 4 6 4 4 4 4 4 4 4 5 5 7 8 8 8 7 8 7 7 6 6 5 6 7 8 9 9 8
5 5 5 4 5 4 4 4 4 4 4 4 4 3 4 3 3 4 4 3 4 6 7 6 6 7 7 6 6 6 6 6 6 7 8 8 9 8
4 5 5 5 6 5 5 4 3 3 3 3 4 3 3 2 2 2 3 3 4 4 4 5 5 6 6 6 6 6 6 6 7 7 8 8 8 8
3 4 5 6 6 5 4 3 3 3 3 3 4 4 3 2 2 2 3 4 3 2 2 3 3 3 4 6 7 7 7 7 7 8 8 7 7 7
4 4 4 6 7 7 6 5 4 4 4 3 4 4 4 3 3 3 2 3 3 1 2 4 2 3 4 4 7 8 8 7 7 7 8 7 7 7
4 4 4 5 5 4 5 5 5 6 6 5 5 5 4 4 3 3 3 3 4 3 2 4 2 3 4 6 9 9 8 7 7 7 7 7 7 6
4 4 5 5 5 4 3 2 3 4 5 5 4 5 4 4 3 3 3 3 3 2 1 2 2 3 4 4 7 8 7 7 7 7 7 7 7 6
4 4 4 4 6 4 2 3 3 3 5 5 5 4 4 4 3 1 1 1 3 2 1 1 1 2 3 3 4 6 7 7 7 7 7 7 6 6
3 3 5 5 5 4 3 3 4 3 2 2 3 3 3 3 4 2 3 2 2 2 1 1 1 1 2 2 2 3 4 6 8 8 7 7 6 4
3 3 3 5 5 4 3 3 4 2 1 1 1 2 2 2 2 2 3 3 3 3 2 1 2 1 2 3 3 3 3 4 4 5 7 7 7 4
3 3 3 4 4 3 3 2 2 1 0 0 1 2 2 2 2 3 3 3 4 5 5 3 3 3 3 4 4 3 3 3 3 4 4 5 5 5
2 3 3 3 3 2 2 2 1 0 1 1 2 2 2 2 2 2 2 2 3 4 4 5 4 4 3 4 4 4 4 4 3 2 3 3 3 2
1 1 2 2 1 1 1 1 0 1 1 1 2 2 2 2 2 2 2 2 2 3 3 3 3 3 4 4 4 4 4 3 2 3 3 3 2 1
1 0 0 0 0 0 0 0 0 1 1 1 1 1 2 2 2 2 2 2 2 3 4 3 2 2 3 3 3 4 4 4 3 3 3 3 2 2
2 1 1 1 1 1 1 1 1 1 1 1 1 1 2 2 3 3 2 2 3 3 3 3 2 2 2 2 3 4 3 4 3 3 2 2 3 2
1 2 2 2 2 2 2 2 2 2 1 1 1 2 2 2 3 3 3 3 3 3 3 2 2 2 2 4 3 2 3 3 3 2 2 2 3 3
2 2 2 2 2 2 2 2 2 1 1 1 1 2 2 2 3 3 3 3 3 3 3 3 2 2 3 4 3 3 4 3 2 2 2 2 2 3
2 2 2 3 2 2 2 2 2 1 1 1 1 2 2 2 3 3 3 4 4 3 4 4 4 5 3 2 2 3 3 2 2 2 2 1 2 2
2 2 2 2 2 2 2 2 2 2 2 2 2 2 2 2 3 4 3 3 3 3 4 4 3 3 1 1 2 2 3 3 3 3 2 2 1 1
3 3 2 3 3 2 2 2 2 2 2 2 2 2 2 3 3 3 3 3 3 3 3 3 3 2 2 1 1 2 2 2 2 3 2 3 1 1
Wind_Direction
219 226 232 233 227 234 234 215 223 268 277 260 260 270 292 299 296 304 301 306 310 307 302 303 303 307 315 315 310 302 302 301 305 305 311 303 293 294
220 221 231 232 228 226 236 234 231 240 263 261 264 278 290 292 291 299 296 307 309 305 304 300 301 305 310 314 313 305 304 308 308 308 309 311 304 295
229 224 237 234 234 235 242 236 236 238 259 277 274 274 272 279 292 295 295 296 297 305 304 301 301 304 307 313 316 310 310 308 309 312 311 311 306 301
228 227 236 234 237 236 240 238 239 240 247 268 275 274 267 273 282 287 296 296 290 296 300 298 299 304 307 313 316 316 317 316 315 313 312 310 305 302
224 226 235 233 238 238 244 241 241 248 242 252 269 271 275 277 298 299 297 293 299 300 298 295 299 305 312 317 319 319 316 317 312 313 315 313 312 307
230 229 233 233 237 236 241 239 239 247 252 254 264 270 273 278 283 292 308 313 314 315 310 306 306 311 316 320 320 316 311 311 311 312 312 310 307 307
241 239 239 244 247 246 251 237 227 238 250 259 263 276 271 278 273 275 293 309 313 301 305 305 307 309 308 310 316 311 309 310 310 310 310 308 307 303
247 251 248 245 250 253 260 257 242 234 235 240 255 261 265 263 269 277 288 307 306 297 317 307 301 299 298 297 307 309 308 310 311 311 308 305 302 299
240 247 254 252 250 245 253 260 260 258 247 238 244 247 255 250 248 259 266 280 272 279 295 290 293 295 290 295 305 304 304 307 312 314 313 305 301 298
238 239 247 255 246 232 225 250 260 259 260 258 247 251 254 253 235 239 252 277 283 279 254 264 282 284 300 294 295 295 301 308 310 312 314 312 307 302
250 247 249 250 247 242 215 239 265 268 276 274 276 281 281 280 272 234 271 296 293 293 256 226 269 301 302 292 292 302 305 310 311 311 312 310 308 304
255 252 257 259 255 250 212 219 245 258 271 299 300 299 293 279 277 231 216 249 276 276 245 216 235 309 311 294 290 307 308 310 310 310 310 307 306 305
252 255 255 262 268 268 249 227 247 262 231 249 277 291 300 283 270 259 235 226 240 254 238 225 242 252 255 290 304 296 289 301 311 309 305 304 301 296
240 253 255 258 265 269 261 264 276 274 168 266 276 281 298 305 298 287 268 256 250 253 247 236 241 248 259 282 288 295 298 299 300 302 304 307 308 302
232 252 260 264 264 261 280 296 290 211 186 265 272 276 284 282 295 306 303 294 292 287 270 253 249 252 254 262 271 284 300 303 302 300 305 306 298 291
255 260 284 283 295 320 309 307 288 246 234 244 268 290 310 304 294 294 300 313 313 311 308 279 256 249 263 266 261 274 286 292 307 310 312 312 316 315
190 156 95 120 80 357 341 333 283 284 280 282 284 308 316 315 310 310 298 307 296 297 313 327 327 294 269 256 263 272 282 286 287 298 309 314 312 305
170 174 201 215 222 231 240 255 262 268 271 273 276 283 294 300 304 309 306 294 290 291 295 304 322 334 327 308 259 259 273 279 294 304 294 295 303 308
171 196 209 220 229 233 237 238 251 265 265 266 277 284 290 294 294 295 299 300 295 292 295 301 308 304 295 303 308 269 258 281 299 307 291 281 282 291
182 205 217 221 225 230 237 242 248 260 262 269 280 288 288 288 287 286 288 289 291 296 302 304 296 282 261 273 288 301 293 269 269 278 287 297 294 312
203 211 218 220 223 226 232 235 231 244 254 259 266 272 278 286 287 286 289 295 295 292 291 295 293 291 280 286 291 306 324 328 276 258 265 284 313 327
211 216 220 218 217 220 225 226 230 238 242 247 257 267 272 274 280 284 287 288 287 287 293 299 306 313 301 260 266 288 319 343 2 2 323 255 233 242
217 216 221 221 215 212 213 220 225 234 241 246 256 266 274 280 283 282 283 285 291 297 303 310 320 326 309 276 271 289 318 335 351 5 5 24 57 256
Height
1454 1454 1455 1455 1456 1456 1456 1457 1457 1454 1452 1451 1452 1452 1452 1451 1450 1449 1448 1448 1446 1445 1445 1445 1444 1443 1442 1440 1439 1439 1438 1438 1437 1437 1437 1437 1437 1437
1450 1450 1451 1451 1452 1452 1452 1453 1453 1452 1450 1447 1448 1448 1447 1447 1446 1445 1444 1443 1442 1441 1441 1440 1439 1438 1438 1436 1434 1434 1434 1433 1433 1433 1433 1433 1433 1433
1446 1446 1447 1447 1448 1448 1448 1448 1449 1448 1446 1444 1445 1444 1443 1442 1442 1441 1440 1439 1438 1437 1437 1436 1435 1434 1433 1432 1431 1430 1430 1429 1429 1429 1429 1429 1429 1429
1442 1442 1443 1443 1444 1444 1444 1444 1444 1444 1443 1441 1440 1439 1439 1438 1437 1437 1436 1435 1434 1434 1433 1432 1431 1431 1430 1429 1427 1427 1426 1426 1426 1425 1425 1425 1424 1424
1438 1438 1439 1440 1440 1440 1440 1440 1440 1440 1439 1437 1436 1435 1435 1434 1433 1433 1432 1431 1431 1430 1429 1428 1428 1427 1427 1425 1424 1424 1423 1423 1422 1421 1421 1420 1420 1419
1434 1435 1435 1436 1436 1436 1436 1436 1436 1435 1435 1433 1432 1431 1431 1430 1430 1429 1428 1427 1426 1426 1426 1425 1425 1424 1423 1422 1421 1420 1419 1419 1418 1418 1417 1416 1416 1415
1430 1431 1431 1432 1432 1433 1432 1432 1432 1431 1430 1429 1428 1427 1426 1426 1426 1425 1424 1423 1423 1422 1421 1421 1421 1420 1420 1419 1418 1417 1416 1415 1415 1414 1413 1412 1412 1412
1426 1427 1427 1428 1428 1428 1429 1428 1428 1427 1426 1425 1425 1423 1423 1422 1422 1422 1421 1420 1418 1419 1418 1417 1417 1416 1416 1415 1414 1413 1412 1412 1411 1410 1409 1408 1408 1408
1423 1423 1423 1424 1424 1424 1424 1424 1424 1424 1423 1423 1421 1419 1419 1419 1418 1418 1417 1417 1416 1416 1415 1412 1413 1412 1412 1411 1411 1410 1409 1408 1407 1406 1405 1404 1404 1404
1419 1419 1419 1420 1420 1420 1420 1420 1419 1419 1419 1418 1417 1417 1417 1416 1416 1415 1414 1413 1413 1413 1412 1409 1408 1408 1407 1407 1407 1406 1405 1405 1404 1402 1401 1400 1400 1400
1415 1415 1415 1416 1416 1417 1416 1416 1415 1415 1415 1415 1414 1414 1414 1413 1413 1412 1411 1410 1409 1408 1409 1407 1405 1404 1403 1402 1402 1402 1402 1401 1400 1398 1397 1396 1396 1396
1411 1411 1412 1412 1413 1413 1412 1412 1411 1411 1411 1410 1411 1410 1410 1410 1410 1409 1408 1408 1406 1405 1405 1404 1403 1402 1399 1398 1399 1399 1398 1396 1395 1394 1393 1393 1392 1392
1407 1408 1408 1408 1409 1409 1409 1408 1408 1408 1407 1407 1407 1407 1407 1406 1406 1406 1406 1405 1404 1403 1403 1402 1400 1399 1398 1395 1393 1394 1393 1391 1391 1390 1389 1389 1388 1388
1404 1404 1404 1405 1405 1406 1405 1405 1405 1405 1405 1404 1404 1403 1403 1403 1403 1403 1402 1402 1401 1401 1400 1399 1397 1396 1394 1392 1390 1389 1389 1388 1387 1386 1385 1384 1384 1384
1401 1402 1402 1402 1402 1402 1402 1402 1402 1402 1402 1401 1401 1401 1401 1401 1400 1400 1399 1399 1398 1398 1397 1396 1395 1393 1392 1389 1387 1386 1385 1384 1384 1383 1382 1380 1380 1380
1399 1399 1399 1399 1399 1399 1400 1400 1400 1400 1400 1399 1399 1399 1399 1398 1397 1397 1396 1395 1394 1394 1393 1392 1391 1390 1388 1387 1385 1383 1382 1381 1380 1380 1378 1377 1377 1377
1396 1396 1396 1396 1396 1397 1397 1397 1397 1398 1397 1397 1397 1396 1396 1395 1395 1395 1394 1393 1392 1390 1389 1389 1388 1387 1386 1385 1382 1381 1380 1379 1378 1377 1376 1375 1374 1375
1393 1393 1393 1394 1394 1394 1394 1395 1395 1395 1395 1395 1394 1394 1394 1393 1393 1392 1392 1391 1389 1388 1387 1386 1385 1384 1383 1381 1381 1379 1378 1377 1376 1375 1374 1373 1372 1373
1390 1390 1391 1391 1392 1392 1392 1393 1393 1393 1393 1393 1393 1392 1392 1391 1390 1390 1389 1388 1387 1386 1385 1384 1383 1381 1379 1378 1378 1378 1377 1375 1374 1373 1372 1371 1370 1371
1387 1388 1389 1389 1389 1390 1390 1391 1391 1391 1391 1391 1391 1390 1389 1389 1388 1388 1387 1386 1384 1383 1382 1381 1380 1379 1378 1377 1375 1375 1375 1374 1373 1371 1370 1370 1369 1369
1385 1386 1386 1387 1387 1387 1388 1388 1388 1388 1388 1388 1388 1388 1387 1387 1386 1386 1385 1384 1383 1381 1380 1379 1378 1378 1377 1376 1374 1372 1373 1373 1372 1370 1369 1369 1368 1367
1383 1383 1384 1385 1385 1385 1385 1386 1386 1386 1386 1386 1386 1386 1385 1385 1384 1384 1382 1382 1381 1379 1378 1377 1377 1376 1375 1374 1372 1371 1370 1370 1370 1369 1369 1368 1367 1366
1380 1381 1381 1382 1382 1382 1383 1383 1383 1384 1384 1384 1383 1383 1383 1383 1382 1381 1380 1380 1379 1378 1376 1375 1375 1374 1373 1373 1371 1370 1369 1368 1367 1367 1367 1367 1366 1366